[[{"header":{"parameterUnit":"m.s-1","parameterCategory":1,"la1":30.2991,"la2":30.254,"lo1":-89.0895,"lo2":-89.0444,"dy":0.0017,"dx":0.0017,"nx":28,"ny":28,"refTime":"2023-08-01T21:00:00:Z","depth":0,"parameterNumber":2,"parameterNumberName":"U-component_of_WINDS"},"data":[0,0,0,0,0,0,0,0,0,0,0,0,0,0,0,0,0,0,0,0,0,0,0,0,0,0,0,0,0,0,0,0,0,0,0,0,0,0,0,0,0,0,0,0,0,0,0,0,0,0,0,0,0,0,0,0,0,0,-1.136,-1.136,0,-1.1313,-1.1313,-1.1312,-1.1274,-1.1274,-1.1274,-1.1273,-1.1224,-1.1223,-1.1222,0,0,0,0,0,0,0,0,0,0,0,0,0,-1.1415,-1.1414,-1.136,-1.136,-1.1359,-1.1314,-1.1313,-1.1312,-1.1274,-1.1274,-1.1274,-1.1273,-1.1224,-1.1223,-1.1222,0,0,0,0,0,0,0,0,0,0,0,0,0,-1.1382,-1.1414,-1.136,-1.1335,-1.1332,-1.1314,-1.1313,-1.1312,-1.1275,-1.1274,-1.1273,-1.1273,-1.1224,-1.1223,-1.1221,-1.1224,0,0,-1.1217,-1.1216,0,0,0,0,0,0,0,0,-1.1384,-1.138,-1.1339,-1.1336,-1.1333,-1.1299,-1.1314,-1.1282,-1.1275,-1.1296,-1.1273,-1.1273,-1.1249,-1.1246,-1.1238,-1.1222,-1.122,-1.1217,-1.1216,-1.1215,-1.1215,0,0,0,0,0,0,0,-1.1386,-1.1382,-1.1342,-1.1338,-1.1335,-1.1325,-1.132,-1.1308,-1.1276,-1.1294,-1.1292,-1.1287,-1.1247,-1.1239,-1.1237,-1.1219,-1.1217,-1.1216,-1.1215,-1.1214,-1.1203,-1.1204,0,0,0,0,0,0,-1.1393,-1.1384,-1.1343,-1.134,-1.1358,-1.1325,-1.1319,-1.1311,-1.1276,-1.1271,-1.1287,-1.1285,-1.1242,-1.1238,-1.1235,-1.1236,-1.1215,-1.1214,-1.1213,-1.1202,-1.1203,-1.1204,0,0,0,0,0,0,-1.1394,-1.139,-1.1345,-1.1361,-1.1355,-1.1324,-1.1316,-1.131,-1.1302,-1.1271,-1.1265,-1.1285,-1.1242,-1.1237,-1.1227,-1.1234,-1.1213,-1.1212,-1.1202,-1.1203,-1.1203,-1.1239,0,0,0,0,0,0,-1.1396,-1.139,-1.1391,-1.1362,-1.1354,-1.1339,-1.1316,-1.131,-1.13,-1.1297,-1.1267,-1.1262,-1.1241,-1.123,-1.1226,-1.1232,-1.1211,-1.1201,-1.1202,-1.1203,-1.1237,-1.1241,-1.1244,0,0,0,0,0,-1.1398,-1.1403,-1.1392,-1.1387,-1.1355,-1.1339,-1.1335,-1.1311,-1.1301,-1.1301,-1.1281,-1.1263,-1.1234,-1.1229,-1.1224,-1.123,-1.1201,-1.1202,-1.1203,-1.1235,-1.124,-1.1244,0,0,0,0,0,0,-1.1433,-1.1398,-1.1386,-1.1381,-1.1364,-1.1333,-1.1333,-1.1317,-1.1301,-1.1299,-1.1269,-1.1263,-1.1257,-1.1242,-1.1238,-1.1231,-1.1215,-1.1215,-1.1241,-1.1245,-1.1249,-1.1253,-1.121,0,0,0,0,0,-1.144,-1.1431,-1.1401,-1.14,-1.1392,-1.1364,-1.1356,-1.1339,-1.132,-1.1312,-1.1291,-1.1273,-1.1259,-1.1251,-1.1237,-1.1234,-1.1228,-1.1236,-1.1239,-1.1243,-1.1243,-1.1242,-1.1245,-1.1208,-1.1208,-1.1208,0,0,-1.1455,-1.1435,-1.1431,-1.1406,-1.1391,-1.1382,-1.1358,-1.1349,-1.1342,-1.1311,-1.1301,-1.1285,-1.1262,-1.1257,-1.1253,-1.1244,-1.1252,-1.1244,-1.1247,-1.1246,-1.1243,-1.1247,-1.125,-1.1209,-1.1209,-1.1209,0,0,-1.1477,-1.1461,-1.1459,-1.1444,-1.1421,-1.1403,-1.1402,-1.1374,-1.1363,-1.1353,-1.1329,-1.132,-1.1297,-1.1282,-1.1272,-1.1289,-1.1272,-1.1285,-1.1304,-1.1303,-1.1306,-1.1308,-1.1315,-1.1318,-1.1286,-1.1286,-1.1286,0,-1.1498,-1.1484,-1.1459,-1.1452,-1.1442,-1.1414,-1.1411,-1.1398,-1.1371,-1.1365,-1.1355,-1.1327,-1.131,-1.13,-1.1305,-1.1297,-1.1295,-1.1289,-1.1307,-1.131,-1.1311,-1.1318,-1.132,-1.1288,-1.1288,-1.1288,-1.1288,0,-1.1512,-1.1502,-1.1503,-1.1479,-1.1469,-1.1464,-1.1438,-1.1431,-1.1415,-1.1397,-1.1388,-1.1366,-1.1347,-1.1344,-1.1327,-1.1332,-1.1327,-1.1313,-1.1296,-1.1317,-1.1323,-1.1325,-1.1291,-1.129,-1.129,-1.1289,0,0,-1.1555,-1.1518,-1.1519,-1.1508,-1.1481,-1.1473,-1.1467,-1.1449,-1.1444,-1.1426,-1.1421,-1.1402,-1.1389,-1.1377,-1.1359,-1.1358,-1.1374,-1.1343,-1.1342,-1.1351,-1.1378,-1.139,-1.1393,-1.1362,-1.1362,-1.1362,-1.1381,0,-1.1574,-1.1562,-1.1539,-1.1534,-1.1526,-1.1499,-1.1493,-1.1476,-1.146,-1.145,-1.1431,-1.1419,-1.1402,-1.1395,-1.1392,-1.1373,-1.1379,-1.1371,-1.1356,-1.1356,-1.1364,-1.1396,-1.1408,-1.1426,-1.1382,-1.1383,-1.1383,0,-1.1594,-1.1579,-1.1574,-1.1548,-1.1544,-1.154,-1.1522,-1.1513,-1.1492,-1.148,-1.1468,-1.1448,-1.144,-1.1424,-1.1413,-1.1408,-1.14,-1.1389,-1.139,-1.1388,-1.1371,-1.1396,-1.1431,-1.1434,-1.1386,-1.1386,-1.1385,0,-1.1627,-1.1606,-1.16,-1.1592,-1.1561,-1.1559,-1.1546,-1.1525,-1.1517,-1.1501,-1.1495,-1.1478,-1.1469,-1.1457,-1.1433,-1.1424,-1.1424,-1.1407,-1.1414,-1.1415,-1.1416,-1.1417,-1.1452,-1.141,-1.141,-1.141,-1.141,0,-1.1651,-1.1649,-1.1615,-1.1612,-1.1609,-1.1582,-1.158,-1.1564,-1.1546,-1.1539,-1.1514,-1.1508,-1.1477,-1.1467,-1.1448,-1.1442,-1.1438,-1.1428,-1.1423,-1.143,-1.1432,-1.1426,-1.1424,-1.1411,-1.1411,-1.1411,-1.141,0,-1.1688,-1.1665,-1.1657,-1.1629,-1.1622,-1.1622,-1.1597,-1.1593,-1.1575,-1.1566,-1.1563,-1.1535,-1.1522,-1.1497,-1.1477,-1.1464,-1.1462,-1.1453,-1.1469,-1.1466,-1.1476,-1.1476,-1.1509,-1.1512,-1.1468,-1.1469,-1.1469,0,-1.1705,-1.1703,-1.1675,-1.1669,-1.1658,-1.1648,-1.1639,-1.1613,-1.1605,-1.1582,-1.158,-1.1565,-1.1552,-1.1533,-1.151,-1.1495,-1.1486,-1.1498,-1.1483,-1.1491,-1.1487,-1.1488,-1.1487,-1.1502,-1.1503,-1.1503,-1.1503,0,-1.1738,-1.1727,-1.1716,-1.1701,-1.1691,-1.1678,-1.1663,-1.1659,-1.1629,-1.1621,-1.1608,-1.1598,-1.1578,-1.1564,-1.1545,-1.1531,-1.1512,-1.1508,-1.151,-1.1518,-1.1528,-1.1523,-1.148,-1.1508,-1.1507,-1.1507,-1.1507,-1.1507,-1.1766,-1.1763,-1.1744,-1.1732,-1.1718,-1.1705,-1.17,-1.1682,-1.1671,-1.1653,-1.1638,-1.1626,-1.1606,-1.1579,-1.1567,-1.1557,-1.1548,-1.1549,-1.155,-1.1551,-1.1554,-1.1529,-1.1553,-1.1553,-1.1553,-1.1553,-1.1553,0,-1.1799,-1.1785,-1.1774,-1.1755,-1.1746,-1.173,-1.1713,-1.1706,-1.1696,-1.1679,-1.1667,-1.1653,-1.1639,-1.1615,-1.1599,-1.1596,-1.1587,-1.1593,-1.1593,-1.159,-1.1563,-1.1564,-1.16,-1.16,-1.16,-1.16,-1.16,-1.16,-1.1815,-1.181,-1.1796,-1.1784,-1.177,-1.1759,-1.1751,-1.1739,-1.1725,-1.171,-1.1699,-1.1684,-1.1664,-1.1647,-1.1634,-1.1627,-1.1623,-1.1631,-1.1622,-1.1597,-1.1592,-1.1588,-1.1589,-1.163,-1.163,-1.1651,-1.1651,-1.1651]},{"header":{"parameterUnit":"m.s-1","parameterCategory":1,"la1":30.2991,"la2":30.254,"lo1":-89.0895,"lo2":-89.0444,"dy":0.0017,"dx":0.0017,"nx":28,"ny":28,"refTime":"2023-08-01T21:00:00:Z","depth":0,"parameterNumber":3,"parameterNumberName":"V-component_of_WINDS"},"data":[0,0,0,0,0,0,0,0,0,0,0,0,0,0,0,0,0,0,0,0,0,0,0,0,0,0,0,0,0,0,0,0,0,0,0,0,0,0,0,0,0,0,0,0,0,0,0,0,0,0,0,0,0,0,0,0,0,0,-1.2058,-1.2059,0,-1.2115,-1.2115,-1.2116,-1.2117,-1.2117,-1.2116,-1.2115,-1.2172,-1.2174,-1.2177,0,0,0,0,0,0,0,0,0,0,0,0,0,-1.195,-1.1952,-1.2058,-1.2059,-1.2059,-1.2115,-1.2115,-1.2116,-1.2118,-1.2117,-1.2116,-1.2115,-1.2172,-1.2174,-1.2177,0,0,0,0,0,0,0,0,0,0,0,0,0,-1.2001,-1.1952,-1.2058,-1.2067,-1.2068,-1.2114,-1.2115,-1.2116,-1.2118,-1.2117,-1.2116,-1.2115,-1.2171,-1.2174,-1.2177,-1.2218,0,0,-1.2187,-1.2188,0,0,0,0,0,0,0,0,-1.1998,-1.2005,-1.2065,-1.2066,-1.2068,-1.2108,-1.2098,-1.215,-1.2118,-1.2099,-1.2115,-1.2114,-1.2152,-1.2156,-1.2169,-1.2221,-1.2223,-1.2187,-1.2189,-1.2191,-1.2192,0,0,0,0,0,0,0,-1.1994,-1.2002,-1.208,-1.2066,-1.2068,-1.2068,-1.2074,-1.2108,-1.213,-1.21,-1.2101,-1.2107,-1.2152,-1.2166,-1.2171,-1.2224,-1.2187,-1.219,-1.2192,-1.2193,-1.2312,-1.2313,0,0,0,0,0,0,-1.1989,-1.1999,-1.2079,-1.2082,-1.203,-1.207,-1.2077,-1.2096,-1.213,-1.2134,-1.2108,-1.2107,-1.2161,-1.2167,-1.2173,-1.2223,-1.2191,-1.2194,-1.2196,-1.231,-1.2312,-1.2313,0,0,0,0,0,0,-1.1987,-1.1996,-1.2076,-1.2041,-1.2051,-1.2073,-1.2095,-1.2098,-1.2112,-1.2136,-1.214,-1.2119,-1.2161,-1.2168,-1.2207,-1.2225,-1.2195,-1.2198,-1.2309,-1.2311,-1.2313,-1.2325,0,0,0,0,0,0,-1.1984,-1.1995,-1.2011,-1.2041,-1.2053,-1.211,-1.2096,-1.21,-1.2117,-1.2117,-1.2147,-1.215,-1.216,-1.2202,-1.221,-1.2229,-1.2201,-1.2308,-1.231,-1.2312,-1.2323,-1.2327,-1.233,0,0,0,0,0,-1.198,-1.2012,-1.2012,-1.2022,-1.2074,-1.2111,-1.2118,-1.2129,-1.2119,-1.2135,-1.2151,-1.215,-1.2222,-1.2206,-1.2215,-1.2236,-1.2306,-1.2309,-1.2312,-1.2321,-1.2326,-1.233,0,0,0,0,0,0,-1.1984,-1.2016,-1.2017,-1.206,-1.2083,-1.2111,-1.2132,-1.2133,-1.2159,-1.2158,-1.217,-1.2176,-1.2215,-1.2229,-1.2211,-1.2277,-1.2263,-1.2267,-1.2267,-1.2272,-1.2275,-1.2272,-1.2203,0,0,0,0,0,-1.199,-1.2018,-1.2045,-1.208,-1.2092,-1.211,-1.2127,-1.2133,-1.2157,-1.2167,-1.2185,-1.2208,-1.2236,-1.2254,-1.2281,-1.2324,-1.2331,-1.2343,-1.2346,-1.2349,-1.2354,-1.2378,-1.2384,-1.2322,-1.2322,-1.2322,0,0,-1.2003,-1.2024,-1.2041,-1.2082,-1.21,-1.2129,-1.2118,-1.2149,-1.217,-1.2171,-1.221,-1.2224,-1.225,-1.2291,-1.231,-1.2304,-1.2372,-1.2353,-1.2355,-1.2358,-1.2381,-1.2387,-1.2392,-1.2324,-1.2324,-1.2323,0,0,-1.2041,-1.2059,-1.2092,-1.211,-1.2138,-1.215,-1.2158,-1.2186,-1.2196,-1.2234,-1.2236,-1.2261,-1.2308,-1.2327,-1.2343,-1.2388,-1.2388,-1.2396,-1.2416,-1.2439,-1.2444,-1.2448,-1.2465,-1.2471,-1.24,-1.24,-1.24,0,-1.2053,-1.2097,-1.2108,-1.2139,-1.2157,-1.2159,-1.2192,-1.2209,-1.2244,-1.2256,-1.2248,-1.2309,-1.2326,-1.2372,-1.2383,-1.2396,-1.2405,-1.2394,-1.2443,-1.2447,-1.2451,-1.2468,-1.2474,-1.2401,-1.2401,-1.2401,-1.24,0,-1.2112,-1.2142,-1.2164,-1.2199,-1.2219,-1.2251,-1.2266,-1.2285,-1.2289,-1.2301,-1.234,-1.2361,-1.2393,-1.2404,-1.2408,-1.2451,-1.2446,-1.244,-1.2427,-1.2458,-1.2474,-1.248,-1.2402,-1.2402,-1.2401,-1.2401,0,0,-1.2156,-1.2195,-1.2204,-1.222,-1.225,-1.2274,-1.2305,-1.2336,-1.2353,-1.2376,-1.2403,-1.2443,-1.2438,-1.2456,-1.2462,-1.2482,-1.2518,-1.2474,-1.2475,-1.2483,-1.2567,-1.2572,-1.2579,-1.2517,-1.2518,-1.2519,-1.2565,0,-1.2199,-1.2255,-1.2265,-1.2315,-1.2343,-1.2345,-1.2372,-1.2394,-1.2406,-1.2431,-1.2444,-1.2473,-1.2463,-1.2474,-1.2494,-1.2509,-1.2535,-1.2506,-1.2543,-1.2544,-1.2538,-1.2587,-1.2593,-1.2635,-1.2571,-1.2572,-1.2573,0,-1.2257,-1.2283,-1.2335,-1.2362,-1.2375,-1.2399,-1.2428,-1.2452,-1.2477,-1.2484,-1.2504,-1.2507,-1.254,-1.2523,-1.2568,-1.2548,-1.2563,-1.2573,-1.2574,-1.258,-1.2562,-1.2595,-1.2649,-1.2656,-1.2582,-1.2581,-1.2581,0,-1.2285,-1.2333,-1.2371,-1.2384,-1.2416,-1.2434,-1.2448,-1.2471,-1.2489,-1.2514,-1.2526,-1.2554,-1.257,-1.2592,-1.2603,-1.259,-1.2647,-1.2631,-1.2655,-1.2654,-1.2668,-1.2668,-1.2727,-1.2675,-1.2675,-1.2675,-1.2675,0,-1.2333,-1.2366,-1.2385,-1.2408,-1.2444,-1.2454,-1.249,-1.2503,-1.2524,-1.255,-1.2552,-1.2576,-1.2588,-1.2614,-1.2622,-1.2659,-1.2665,-1.2672,-1.2675,-1.2673,-1.2673,-1.2685,-1.2683,-1.2677,-1.2676,-1.2676,-1.2676,0,-1.2373,-1.2386,-1.2428,-1.2455,-1.2462,-1.2488,-1.2511,-1.2533,-1.2544,-1.2577,-1.2585,-1.2603,-1.2634,-1.2646,-1.2683,-1.2689,-1.2731,-1.273,-1.2723,-1.2725,-1.2748,-1.2746,-1.2818,-1.2829,-1.2769,-1.2769,-1.277,0,-1.2403,-1.2428,-1.2458,-1.2476,-1.249,-1.2519,-1.2537,-1.2548,-1.2567,-1.2596,-1.2615,-1.2645,-1.2671,-1.2719,-1.2735,-1.2764,-1.2764,-1.2788,-1.2769,-1.2767,-1.2766,-1.2766,-1.2768,-1.2792,-1.2792,-1.2793,-1.2793,0,-1.2456,-1.2462,-1.2489,-1.2518,-1.254,-1.2564,-1.2587,-1.2601,-1.2615,-1.2636,-1.2667,-1.2687,-1.2725,-1.2755,-1.2784,-1.2798,-1.2798,-1.2799,-1.2806,-1.2806,-1.2801,-1.2805,-1.2735,-1.2797,-1.2797,-1.2797,-1.2796,-1.2796,-1.2493,-1.2516,-1.254,-1.257,-1.2588,-1.261,-1.2632,-1.2647,-1.2673,-1.2705,-1.2709,-1.2743,-1.2766,-1.2805,-1.282,-1.2847,-1.2841,-1.2851,-1.2854,-1.2856,-1.2859,-1.2796,-1.2852,-1.2852,-1.2852,-1.2851,-1.2851,0,-1.2548,-1.2564,-1.2591,-1.2623,-1.2646,-1.2644,-1.2669,-1.2689,-1.2719,-1.274,-1.2765,-1.2801,-1.283,-1.2848,-1.2877,-1.2895,-1.2896,-1.2902,-1.2902,-1.2906,-1.2862,-1.2853,-1.2901,-1.2901,-1.2901,-1.2901,-1.2901,-1.2901,-1.2579,-1.2618,-1.2626,-1.2673,-1.2688,-1.2722,-1.2737,-1.2756,-1.2773,-1.2814,-1.2838,-1.285,-1.287,-1.2901,-1.2927,-1.2932,-1.2943,-1.295,-1.2955,-1.2914,-1.2909,-1.2904,-1.2896,-1.2952,-1.2952,-1.2997,-1.2997,-1.2997]}]]